Chievres, Belgium

2:10 PM CEST on June 22, 2017 (GMT +0200)
Chievres Air Base

Weather History for EBCV - January, 2013

Change the Weather History Date:

Saturday, January 12, 2013

  Actual Average Record
Temperature  
Mean Temperature 30 °F -  
Max Temperature 35 °F 41 °F 53 °F (2007)
Min Temperature 26 °F 35 °F 26 °F (2013)
Degree Days  
Heating Degree Days 34    
Moisture  
Dew Point 30 °F    
Average Humidity 93    
Maximum Humidity 100    
Minimum Humidity 80    
Precipitation  
Precipitation 0.08 in - - ()
Sea Level Pressure  
Sea Level Pressure 29.97 in    
Wind  
Wind Speed 6 mph ()    
Max Wind Speed 12 mph    
Max Gust Speed -    
Visibility 2.2 miles    
Events Rain , Snow    
Averages and records for this station are not official NWS values.
T = Trace of Precipitation, MM = Missing Value Source: Averaged Metar Reports

Daily Weather History Graph

Daily Weather History Graph

Search for Another Location

Airport or City:

Trip Planner

Search our weather history database for the weather conditions in past years. The results will help you decide how hot, cold, wet, or windy it might be!

Date:

Astronomy

Jan. 12, 2013 Rise Set
Actual Time 8:41 AM CET 5:04 PM CET
Civil Twilight 8:03 AM CET 5:42 PM CET
Nautical Twilight 7:22 AM CET 6:23 PM CET
Astronomical Twilight 6:43 AM CET 7:03 PM CET
Moon 8:40 AM CET (1/12) 6:26 PM CET (1/12)
Length of Visible Light 9h 38m
Length of Day
8h 23m
New Moon, 1% of the Moon is Illuminated
Jan 12
New Moon
Jan 19
First Quarter
Jan 27
Full
Feb 3
Last Quarter
Feb 10
New

Hourly Weather History & Observations

Time (CET) Temp. Windchill Dew Point Humidity Pressure Visibility Wind Dir Wind Speed Gust Speed Precip Events Conditions
12:25 AM 32.0 °F 28.7 °F 30.2 °F 93% 30.06 in 3.1 mi Variable 3.5 mph - N/A   Overcast
1:00 AM 32 °F - 29 °F 83% 30.07 in 4 mi SE 4.5 mph - -   Clear
1:10 AM 32.0 °F 26.4 °F 26.6 °F 80% 30.04 in 5.0 mi SE 5.8 mph - N/A   Mostly Cloudy
1:25 AM 32.0 °F 26.4 °F 26.6 °F 80% 30.04 in 5.0 mi SE 5.8 mph - N/A   Mostly Cloudy
2:03 AM 32.0 °F - 26.6 °F 80% 30.04 in 4.3 mi Variable 2.3 mph - N/A   Scattered Clouds
2:25 AM 30.2 °F 26.7 °F 26.6 °F 86% 30.04 in 3.1 mi Variable 3.5 mph - N/A   Partly Cloudy
2:39 AM 30.2 °F 25.4 °F 26.6 °F 86% 30.04 in - NE 4.6 mph - N/A   Clear
3:25 AM 28.4 °F 23.3 °F 26.6 °F 93% 30.04 in - NE 4.6 mph - N/A   Clear
4:00 AM 28 °F - 25 °F 85% 30.04 in 3 mi ENE 4.5 mph - -   Mist
4:25 AM 28.4 °F 22.2 °F 24.8 °F 86% 30.01 in 2.8 mi NE 5.8 mph - N/A   Clear
5:25 AM 26.6 °F 20.0 °F 24.8 °F 93% 30.01 in - East 5.8 mph - N/A   Scattered Clouds
5:57 AM 28.4 °F 22.2 °F 24.8 °F 86% 30.01 in 3.1 mi East 5.8 mph - N/A   Partly Cloudy
6:25 AM 28.4 °F 21.2 °F 24.8 °F 86% 29.98 in 3.1 mi East 6.9 mph - N/A   Partly Cloudy
6:43 AM 26.6 °F 20.0 °F 24.8 °F 93% 29.98 in - East 5.8 mph - N/A   Partly Cloudy
7:00 AM 27 °F - 25 °F 90% 30.01 in 3 mi East 6.7 mph - -   Mist
7:02 AM 26.6 °F 21.2 °F 24.8 °F 93% 29.98 in 3.1 mi East 4.6 mph - N/A   Clear
7:19 AM 26.6 °F 21.2 °F 24.8 °F 93% 29.98 in 3.1 mi East 4.6 mph - N/A   Scattered Clouds
7:25 AM 28.4 °F 23.3 °F 24.8 °F 86% 29.98 in - East 4.6 mph - N/A   Scattered Clouds
8:25 AM 28.4 °F 22.2 °F 26.6 °F 93% 29.98 in - East 5.8 mph - N/A   Mostly Cloudy
9:25 AM 30.2 °F 23.4 °F 28.4 °F 93% 29.98 in - East 6.9 mph - N/A   Mostly Cloudy
10:00 AM 30 °F - 29 °F 92% 30.01 in 3 mi East 6.7 mph - -   Mist
10:25 AM 30.2 °F 23.4 °F 28.4 °F 93% 29.98 in - East 6.9 mph - N/A   Mostly Cloudy
11:25 AM 32.0 °F 25.6 °F 30.2 °F 93% 29.98 in - East 6.9 mph - N/A   Mostly Cloudy
12:25 PM 33.8 °F 26.4 °F 32.0 °F 93% 29.95 in 2.8 mi East 9.2 mph - N/A   Mostly Cloudy
12:28 PM 33.8 °F 26.4 °F 32.0 °F 93% 29.95 in 3.1 mi East 9.2 mph - N/A   Mostly Cloudy
1:00 PM 34 °F - 32 °F 88% 29.97 in 3 mi East 8.9 mph - -   Scattered Clouds
1:25 PM 35.6 °F 28.6 °F 32.0 °F 87% 29.95 in 3.7 mi East 9.2 mph - N/A   Mostly Cloudy
2:25 PM 35.6 °F 28.0 °F 32.0 °F 87% 29.92 in 4.3 mi East 10.4 mph - N/A   Mostly Cloudy
3:11 PM 35.6 °F 27.5 °F 32.0 °F 87% 29.92 in - East 11.5 mph - N/A Rain Light Rain
3:17 PM 35.6 °F 27.5 °F 32.0 °F 87% 29.92 in - East 11.5 mph - N/A Rain Light Rain
3:25 PM 35.6 °F 27.5 °F 32.0 °F 87% 29.92 in - East 11.5 mph - N/A Rain Light Rain
3:42 PM 33.8 °F 25.3 °F 32.0 °F 93% 29.92 in 1.8 mi East 11.5 mph - N/A Rain , Snow Light Rain
4:00 PM 34 °F - 33 °F 92% 29.95 in 2 mi East 8.9 mph - - Snow Light Snow
4:25 PM 33.8 °F 27.0 °F 32.0 °F 93% 29.95 in 1.8 mi East 8.1 mph - N/A Rain Light Rain
4:28 PM 33.8 °F 27.0 °F 32.0 °F 93% 29.95 in 1.7 mi East 8.1 mph - N/A Rain , Snow Light Rain
4:49 PM 33.8 °F 27.7 °F 32.0 °F 93% 29.95 in 1.3 mi East 6.9 mph - N/A Snow Light Snow
5:25 PM 33.8 °F 27.7 °F 32.0 °F 93% 29.95 in 1.2 mi East 6.9 mph - N/A Rain , Snow Light Rain
5:49 PM 32.0 °F 24.8 °F 32.0 °F 100% 29.95 in 0.9 mi East 8.1 mph - N/A Snow Light Snow
6:25 PM 32.0 °F 25.6 °F 32.0 °F 100% 29.95 in 0.8 mi East 6.9 mph - N/A Snow Light Snow
7:00 PM 33 °F - 32 °F 94% 29.96 in 1 mi East 6.7 mph - - Snow Light Snow
7:25 PM 32.0 °F 26.4 °F 32.0 °F 100% 29.95 in 0.7 mi East 5.8 mph - N/A Snow Light Snow
8:07 PM 32.0 °F 25.6 °F 32.0 °F 100% 29.95 in 1.0 mi East 6.9 mph - N/A Snow Light Snow
8:13 PM 32.0 °F 25.6 °F 32.0 °F 100% 29.95 in 0.9 mi East 6.9 mph - N/A Snow Light Snow
8:25 PM 32.0 °F 26.4 °F 32.0 °F 100% 29.95 in 0.8 mi East 5.8 mph - N/A Snow Light Snow
8:35 PM 32.0 °F 25.6 °F 32.0 °F 100% 29.95 in 1.0 mi East 6.9 mph - N/A Snow Light Snow
9:12 PM 32.0 °F 25.6 °F 32.0 °F 100% 29.95 in 1.4 mi East 6.9 mph - N/A Snow Light Snow Grains
9:18 PM 32.0 °F 25.6 °F 32.0 °F 100% 29.95 in 1.3 mi East 6.9 mph - N/A Snow Light Snow
9:25 PM 32.0 °F 25.6 °F 32.0 °F 100% 29.95 in 1.2 mi East 6.9 mph - N/A Snow Light Snow
10:00 PM 33 °F - 32 °F 94% 29.97 in 1 mi East 6.7 mph - - Snow Light Snow
10:09 PM 32.0 °F 27.5 °F 32.0 °F 100% 29.95 in 1.2 mi East 4.6 mph - N/A Snow Light Snow Grains
10:25 PM 32.0 °F 26.4 °F 32.0 °F 100% 29.95 in 1.2 mi East 5.8 mph - N/A   Light Ice Pellets
10:29 PM 32.0 °F 25.6 °F 32.0 °F 100% 29.95 in 1.1 mi East 6.9 mph - N/A Snow Light Snow
10:58 PM 32.0 °F 24.8 °F 32.0 °F 100% 29.95 in 1.7 mi East 8.1 mph - N/A Snow Light Snow Grains
11:04 PM 32.0 °F 25.6 °F 32.0 °F 100% 29.95 in 1.7 mi East 6.9 mph - N/A Snow Light Snow
11:25 PM 32.0 °F 24.8 °F 32.0 °F 100% 29.95 in 1.7 mi East 8.1 mph - N/A Snow Light Snow
11:32 PM 32.0 °F 25.6 °F 32.0 °F 100% 29.95 in - East 6.9 mph - N/A Snow Light Snow Grains
11:51 PM 32.0 °F 25.6 °F 32.0 °F 100% 29.95 in 1.8 mi East 6.9 mph - N/A Snow Light Snow